STARLINK-4546 (53422 NORAD) Tracking and Keplerian Element Data

This shows tracking and keplerian element data for the satellite.

Feedback or suggestion? Click here.




ElementValue
Catalog53422
NameSTARLINK-4546
Epoch Orbit797
Epoch Day270.25001157
Epoch Year2022
RAAN11.5407
Inclination53.2178
Eccentricity0.0001941
Argument of Perigee41.4429
Mean Anonmoly235.4365
Mean Motion15.4986234
Decay Rate0.00044111
L11 53422U 22097AL 22270.25001157 .00044111 00000+0 78138-3 0 9990
L22 53422 53.2178 11.5407 0001941 41.4429 235.4365 15.49862340 7974

Live tracking and technical data element details for STARLINK-4546 (NORAD 53422). STARLINK-4546 can be tracked NOW for your location showing map with azimuth and elevation plus other details from your city location.

Track the satellite on the map from your city or location and see movement details for azimuth, elevation, latitude, longitude, range, height, and movement on the map or in text.







IsCatalogInMostPopularTable: catalog: 53422, numindb: 3
Update: records affected: 1



GetName: 53422 STARLINK-4546

Hit Count: updated at: Wed, 28 Sep 2022 22:21:52 GMT